DW5051 East Harwich MA US current weather conditions

sailwx.info

Wind from 221 at 3 knots gusting 8

Air temperature 2.2° C
Dewpoint -0.0° C

Last reported at 2020-Jan-27 12:56 UTC.
Time now 2020-Jan-27 13:26 UTC

Location: N 41°43' W 070°02'.
View on Google Maps.

See reports from other nearby stations

  
Tides and Currents Weather Stations Pressure Air Temp Water Temp Dewpoint Dewpoint Depression Visibility Wind Speed Wind Dir Waves Ship Positions
date/time (UTC)wind fromknots sea level pressurealtimeterstation pressurevisibilityair tempwater tempwave heightnotes
2020-Jan-27 13:05 227 2 gusting 6 2.2
2020-Jan-27 12:56 221 3 gusting 8 2.2
2020-Jan-27 12:47 218 2 gusting 6 2.2
2020-Jan-27 12:38 219 3 gusting 6 2.2
2020-Jan-27 12:29 214 2 gusting 8 2.2
2020-Jan-27 12:20 226 2 gusting 6 2.2
2020-Jan-27 12:11 221 2 gusting 6 2.2
2020-Jan-27 12:02 224 2 gusting 4 1.7
2020-Jan-27 11:53 225 2 gusting 4 1.7
2020-Jan-27 11:44 221 1 gusting 5 1.7
2020-Jan-27 11:35 239 1 gusting 5 1.1
2020-Jan-27 11:26 236 1 gusting 3 1.1
2020-Jan-27 11:17 232 1 gusting 4 1.1
2020-Jan-27 11:08 225 1 gusting 6 0.6
2020-Jan-27 10:59 233 1 gusting 4 -0.0
2020-Jan-27 10:50 225 1 gusting 4 -0.0
2020-Jan-27 10:41 225 0 gusting 3 -0.6
2020-Jan-27 10:32 225 0 gusting 1 -0.6
2020-Jan-27 10:23 225 -0.6
2020-Jan-27 10:14 225 -0.6
2020-Jan-27 10:05 225 -0.0
2020-Jan-27 09:56 225 -0.0
2020-Jan-27 09:47 225 0 gusting 2 -0.0
2020-Jan-27 09:38 225 0 gusting 2 -0.0
2020-Jan-27 09:29 225 0 gusting 2 -0.0
2020-Jan-27 09:20 221 1 gusting 2 -0.0
2020-Jan-27 09:11 220 0 gusting 3 -0.0
2020-Jan-27 09:02 220 0 gusting 2 -0.6
2020-Jan-27 08:53 220 -0.6
2020-Jan-27 08:44 220 -1.1
2020-Jan-27 08:35 -1.1
2020-Jan-27 08:26 -1.1
2020-Jan-27 08:17 -1.1
2020-Jan-27 08:08 -1.1
2020-Jan-27 07:59 -1.1
2020-Jan-27 07:50 220 -1.7
2020-Jan-27 07:41 -1.1
2020-Jan-27 07:32 -0.6
2020-Jan-27 07:23 -0.6
2020-Jan-27 07:14 -0.0
2020-Jan-27 07:05 220 -0.6
2020-Jan-27 06:56 220 -0.0
2020-Jan-27 06:47 220 -0.0
2020-Jan-27 06:38 220 0 gusting 2 0.6
2020-Jan-27 06:29 220 0 gusting 3 0.6
2020-Jan-27 06:20 219 0 gusting 2 1.1
2020-Jan-27 06:11 217 1 gusting 4 1.1
2020-Jan-27 06:02 217 0 gusting 3 0.6
2020-Jan-27 05:53 217 1 gusting 2 1.1
2020-Jan-27 05:44 217 1 gusting 2 0.6
2020-Jan-27 05:35 219 0 gusting 4 0.6
2020-Jan-27 05:26 222 0 gusting 3 1.1
2020-Jan-27 05:17 225 1 gusting 4 1.1
2020-Jan-27 05:08 227 1 gusting 4 1.1
2020-Jan-27 04:59 223 1 gusting 4 1.1
2020-Jan-27 04:50 222 1 gusting 4 1.1
2020-Jan-27 04:41 223 1 gusting 4 1.1
2020-Jan-27 04:32 219 1 gusting 4 1.1
2020-Jan-27 04:23 251 0 gusting 3 1.1
2020-Jan-27 04:14 244 0 gusting 3 1.1
2020-Jan-27 04:05 226 0 gusting 4 1.1
2020-Jan-27 03:56 226 1 gusting 3 1.1
2020-Jan-27 03:47 222 1 gusting 3 1.7
2020-Jan-27 03:38 214 1 gusting 4 1.7
2020-Jan-27 03:29 211 2 gusting 5 2.2
2020-Jan-27 03:20 228 1 gusting 3 2.2
2020-Jan-27 03:11 225 1 gusting 3 2.8
2020-Jan-27 03:02 262 1 gusting 2 2.8
2020-Jan-27 02:53 240 1 gusting 6 2.8
2020-Jan-27 02:44 239 1 gusting 6 3.3
2020-Jan-27 02:35 237 2 gusting 7 3.3
2020-Jan-27 02:26 250 1 gusting 6 2.8
2020-Jan-27 02:17 249 1 gusting 3 2.8
2020-Jan-27 02:08 239 1 gusting 6 2.8
2020-Jan-27 01:59 234 1 gusting 6 2.8
2020-Jan-27 01:50 229 1 gusting 5 2.8
2020-Jan-27 01:41 227 2 gusting 6 2.8
2020-Jan-27 01:32 254 1 gusting 6 2.8
2020-Jan-27 01:23 250 1 gusting 4 2.8
2020-Jan-27 01:14 243 0 gusting 3 2.8
2020-Jan-27 01:05 235 1 gusting 6 3.3
2020-Jan-27 00:56 230 1 gusting 5 3.3
2020-Jan-27 00:47 234 0 gusting 5 3.3
2020-Jan-27 00:38 232 1 gusting 4 3.9
2020-Jan-27 00:29 235 2 gusting 7 3.9
2020-Jan-27 00:20 251 2 gusting 7 3.9
2020-Jan-27 00:11 250 2 gusting 8 3.3
2020-Jan-27 00:02 230 1 gusting 4 3.3
2020-Jan-26 23:53 231 1 gusting 4 3.3
2020-Jan-26 23:44 223 1 gusting 4 3.9
2020-Jan-26 23:35 225 2 gusting 6 3.9
2020-Jan-26 23:26 228 3 gusting 6 3.9
2020-Jan-26 23:17 225 3 gusting 8 4.4
2020-Jan-26 23:08 224 3 gusting 6 4.4
2020-Jan-26 22:59 220 3 gusting 8 4.4
2020-Jan-26 22:50 221 3 gusting 8 4.4
2020-Jan-26 22:41 223 4 gusting 13 4.4
2020-Jan-26 22:32 221 5 gusting 11 4.4
2020-Jan-26 22:23 221 5 gusting 13 5.0
2020-Jan-26 22:14 217 5 gusting 10 5.0
2020-Jan-26 22:05 221 4 gusting 10 5.0
2020-Jan-26 21:56 222 3 gusting 8 4.4
2020-Jan-26 21:47 216 4 gusting 8 4.4
2020-Jan-26 21:38 215 5 gusting 9 5.0
2020-Jan-26 21:29 216 5 gusting 13 5.0
2020-Jan-26 21:20 216 5 gusting 13 5.6
2020-Jan-26 21:11 211 5 gusting 12 5.6
2020-Jan-26 21:02 215 6 gusting 13 5.6
2020-Jan-26 20:53 215 5 gusting 12 6.1
2020-Jan-26 20:44 210 6 gusting 13 6.1
2020-Jan-26 20:35 212 7 gusting 14 6.1
2020-Jan-26 20:26 217 5 gusting 12 6.7
2020-Jan-26 20:17 212 6 gusting 13 6.7
2020-Jan-26 20:08 215 6 gusting 19 6.7
2020-Jan-26 19:59 218 5 gusting 12 7.2
2020-Jan-26 19:50 216 6 gusting 13 7.2
2020-Jan-26 19:41 219 6 gusting 17 7.2
2020-Jan-26 19:32 217 6 gusting 15 7.2
2020-Jan-26 19:23 208 6 gusting 15 7.2
2020-Jan-26 19:14 216 6 gusting 18 7.2
2020-Jan-26 19:05 225 7 gusting 15 7.2
2020-Jan-26 18:56 223 6 gusting 13 7.8
2020-Jan-26 18:47 213 6 gusting 14 7.8
2020-Jan-26 18:38 205 5 gusting 14 7.8
2020-Jan-26 18:29 198 4 gusting 9 8.9
2020-Jan-26 18:20 230 4 gusting 10 8.9
2020-Jan-26 18:11 223 5 gusting 11 8.9
2020-Jan-26 18:02 222 3 gusting 9 8.9
2020-Jan-26 17:53 233 3 gusting 7 8.9
2020-Jan-26 17:44 278 4 gusting 9 8.9
2020-Jan-26 17:35 276 3 gusting 9 8.3
2020-Jan-26 17:26 270 3 gusting 8 8.3
2020-Jan-26 17:17 267 2 gusting 8 8.3
2020-Jan-26 17:08 276 3 gusting 8 7.8
2020-Jan-26 16:59 269 2 gusting 9 7.8
2020-Jan-26 16:50 278 3 gusting 10 7.2
2020-Jan-26 16:41 287 3 gusting 9 7.2
2020-Jan-26 16:32 269 2 gusting 7 7.2
2020-Jan-26 16:23 242 2 gusting 6 6.1
2020-Jan-26 16:14 255 3 gusting 8 6.1
2020-Jan-26 16:05 236 3 gusting 7 6.7
2020-Jan-26 15:56 239 4 gusting 8 6.7
2020-Jan-26 15:47 264 3 gusting 8 6.1
2020-Jan-26 15:38 255 3 gusting 8 6.1
2020-Jan-26 15:29 253 3 gusting 9 5.6
2020-Jan-26 15:20 236 3 gusting 7 5.6
2020-Jan-26 15:11 223 3 gusting 8 5.6
2020-Jan-26 15:02 236 4 gusting 9 5.6
2020-Jan-26 14:53 222 4 gusting 10 5.6
2020-Jan-26 14:44 219 4 gusting 10 5.6
2020-Jan-26 14:35 222 3 gusting 9 5.6
2020-Jan-26 14:26 230 4 gusting 8 5.6
2020-Jan-26 14:17 230 4 gusting 10 5.6
2020-Jan-26 14:08 235 3 gusting 9 5.6
2020-Jan-26 13:59 228 3 gusting 11 5.6
2020-Jan-26 13:50 240 2 gusting 7 6.1
2020-Jan-26 13:41 240 4 gusting 9 5.6
2020-Jan-26 13:32 229 2 gusting 9 5.6
2020-Jan-26 13:23 233 3 gusting 9 5.6
2020-Jan-26 13:14 222 3 gusting 6 5.6
2020-Jan-26 13:05 213 2 gusting 6 5.6
2020-Jan-26 12:56 222 2 gusting 6 5.6
2020-Jan-26 12:47 218 2 gusting 5 5.6
2020-Jan-26 12:38 228 2 gusting 6 5.6
2020-Jan-26 12:29 223 2 gusting 5 5.6
2020-Jan-26 12:20 214 3 gusting 6 5.6
2020-Jan-26 12:11 220 2 gusting 7 5.6
2020-Jan-26 12:02 216 3 gusting 6 5.6
2020-Jan-26 11:53 207 2 gusting 6 5.6
2020-Jan-26 11:44 199 2 gusting 6 5.6
2020-Jan-26 11:35 216 2 gusting 6 5.6
2020-Jan-26 11:26 210 2 gusting 6 5.6
2020-Jan-26 11:17 219 3 gusting 7 5.6
2020-Jan-26 11:08 215 3 gusting 7 5.6
2020-Jan-26 10:59 199 2 gusting 6 5.6
2020-Jan-26 10:50 213 2 gusting 6 5.6
2020-Jan-26 10:41 209 3 gusting 7 5.6
2020-Jan-26 10:32 215 4 gusting 9 5.6
2020-Jan-26 10:23 211 4 gusting 8 5.6
2020-Jan-26 10:14 206 3 gusting 8 5.6
2020-Jan-26 10:05 214 3 gusting 8 6.1
2020-Jan-26 09:56 214 3 gusting 8 6.1
2020-Jan-26 09:47 214 3 gusting 6 6.1
2020-Jan-26 09:38 213 3 gusting 6 6.1
2020-Jan-26 09:29 221 4 gusting 6 6.1
2020-Jan-26 09:20 223 2 gusting 7 6.7
2020-Jan-26 09:11 227 2 gusting 6 6.7
2020-Jan-26 09:02 213 4 gusting 8 6.7
2020-Jan-26 08:53 210 4 gusting 8 7.2
2020-Jan-26 08:44 213 2 gusting 6 7.2
2020-Jan-26 08:35 188 1 gusting 3 7.2
2020-Jan-26 08:26 205 1 gusting 3 7.8
2020-Jan-26 08:17 221 1 gusting 4 7.8
2020-Jan-26 08:08 224 1 gusting 4 7.8
2020-Jan-26 07:59 223 1 gusting 5 7.2
2020-Jan-26 07:50 222 1 gusting 5 7.2
2020-Jan-26 07:41 181 1 gusting 3 6.7
2020-Jan-26 07:32 166 1 gusting 3 6.7
2020-Jan-26 07:23 167 0 gusting 4 7.2
2020-Jan-26 07:14 167 1 gusting 4 7.2
2020-Jan-26 07:05 169 1 gusting 4 7.8
2020-Jan-26 06:56 169 0 gusting 3 7.8
2020-Jan-26 06:47 211 0 gusting 3 8.3
2020-Jan-26 06:38 224 0 gusting 4 8.3
2020-Jan-26 06:20 219 2 gusting 6 8.3
2020-Jan-26 06:11 212 3 gusting 7 8.9
2020-Jan-26 06:02 181 3 gusting 7 8.9
2020-Jan-26 05:53 173 4 gusting 13 8.9
2020-Jan-26 05:44 174 3 gusting 13 9.4
2020-Jan-26 05:35 181 4 gusting 14 9.4
2020-Jan-26 05:26 177 5 gusting 18 10.0
2020-Jan-26 05:17 143 5 gusting 15 10.0
2020-Jan-26 05:08 138 4 gusting 18 10.6
2020-Jan-26 04:59 136 5 gusting 14 10.0
2020-Jan-26 04:50 138 6 gusting 13 10.0
2020-Jan-26 04:41 138 6 gusting 13 10.0
2020-Jan-26 04:32 144 6 gusting 16 9.4
2020-Jan-26 04:15 141 6 gusting 16 9.4
2020-Jan-26 04:06 147 5 gusting 13 10.0
2020-Jan-26 03:57 138 6 gusting 13 9.4
2020-Jan-26 03:48 146 6 gusting 13 9.4
2020-Jan-26 03:39 140 5 gusting 11 9.4
2020-Jan-26 03:30 137 6 gusting 13 9.4
2020-Jan-26 03:21 148 6 gusting 13 9.4
2020-Jan-26 03:12 171 6 gusting 13 9.4
2020-Jan-26 03:03 138 7 gusting 18 9.4
2020-Jan-26 02:54 114 10 gusting 20 9.4
2020-Jan-26 02:45 124 6 gusting 16 9.4
2020-Jan-26 02:36 118 8 gusting 22 8.9
2020-Jan-26 02:27 123 6 gusting 22 8.9
2020-Jan-26 02:18 115 8 gusting 19 8.9
2020-Jan-26 02:09 111 7 gusting 17 8.9
2020-Jan-26 02:00 106 8 gusting 23 8.9
2020-Jan-26 01:51 113 7 gusting 18 8.9
2020-Jan-26 01:42 109 6 gusting 17 8.9
2020-Jan-26 01:33 101 8 gusting 17 8.9
2020-Jan-26 01:24 108 8 gusting 19 8.3
2020-Jan-26 01:15 107 8 gusting 23 8.3
2020-Jan-26 01:06 110 6 gusting 16 8.3
2020-Jan-26 00:57 105 7 gusting 19 8.3
2020-Jan-26 00:48 105 7 gusting 18 7.8
2020-Jan-26 00:39 103 7 gusting 19 7.8
2020-Jan-26 00:30 100 6 gusting 17 7.8
2020-Jan-26 00:21 096 6 gusting 19 7.8
2020-Jan-26 00:12 096 6 gusting 13 7.8
2020-Jan-26 00:03 094 6 gusting 13 7.8
2020-Jan-25 23:54 089 6 gusting 17 7.2
2020-Jan-25 23:45 083 6 gusting 14 7.2
2020-Jan-25 23:34 085 5 gusting 14 7.2
2020-Jan-25 23:25 088 6 gusting 17 7.2
2020-Jan-25 23:16 090 7 gusting 17 7.2
2020-Jan-25 23:07 090 7 gusting 20 7.2
2020-Jan-25 22:58 089 5 gusting 15 7.2
2020-Jan-25 22:49 088 6 gusting 15 7.2
2020-Jan-25 22:40 085 6 gusting 15 7.2
2020-Jan-25 22:31 078 6 gusting 15 7.2
2020-Jan-25 22:22 083 6 gusting 14 7.2
2020-Jan-25 22:13 083 6 gusting 18 7.2
2020-Jan-25 22:04 085 6 gusting 13 7.2
2020-Jan-25 21:55 089 6 gusting 13 7.2
2020-Jan-25 21:46 089 6 gusting 15 7.2
2020-Jan-25 21:37 087 6 gusting 16 7.2
2020-Jan-25 21:28 078 5 gusting 13 7.2
2020-Jan-25 21:19 076 6 gusting 15 7.2
2020-Jan-25 21:10 082 5 gusting 11 7.2
2020-Jan-25 21:01 081 5 gusting 16 7.2
2020-Jan-25 20:52 088 5 gusting 13 7.2
2020-Jan-25 20:43 084 6 gusting 13 7.2
2020-Jan-25 20:34 079 6 gusting 16 7.2
2020-Jan-25 20:25 072 6 gusting 12 7.8
2020-Jan-25 20:16 075 5 gusting 10 7.8
2020-Jan-25 20:07 078 5 gusting 11 7.8
2020-Jan-25 19:58 078 4 gusting 12 7.8
2020-Jan-25 19:49 079 5 gusting 13 7.8
2020-Jan-25 19:40 080 4 gusting 11 7.8
2020-Jan-25 19:31 079 5 gusting 12 7.8
2020-Jan-25 19:22 075 5 gusting 13 7.8
2020-Jan-25 19:13 071 6 gusting 12 7.8
2020-Jan-25 19:04 080 5 gusting 9 7.8
2020-Jan-25 18:55 086 4 gusting 11 7.8
2020-Jan-25 18:46 070 5 gusting 12 8.3
2020-Jan-25 18:37 063 5 gusting 13 7.8
2020-Jan-25 18:28 077 5 gusting 14 8.3
2020-Jan-25 18:19 069 6 gusting 13 8.3
2020-Jan-25 18:10 069 4 gusting 13 8.3
2020-Jan-25 18:01 065 6 gusting 12 7.8
2020-Jan-25 17:52 069 6 gusting 15 7.8
2020-Jan-25 17:43 058 6 gusting 13 7.8
2020-Jan-25 17:34 061 6 gusting 13 7.8
2020-Jan-25 17:25 064 5 gusting 13 7.8
2020-Jan-25 17:07 064 6 gusting 13 7.8
2020-Jan-25 16:58 069 6 gusting 13 7.8
2020-Jan-25 16:49 071 6 gusting 14 7.2
2020-Jan-25 16:40 090 5 gusting 11 7.2
2020-Jan-25 16:31 077 5 gusting 10 7.2
2020-Jan-25 16:22 081 5 gusting 13 7.2
2020-Jan-25 16:13 083 6 gusting 14 7.2
2020-Jan-25 16:04 080 6 gusting 15 7.2
2020-Jan-25 15:55 081 6 gusting 13 7.2
2020-Jan-25 15:46 073 5 gusting 12 7.2
2020-Jan-25 15:37 077 4 gusting 11 6.7
2020-Jan-25 15:28 085 5 gusting 13 6.7
2020-Jan-25 15:19 072 4 gusting 13 6.7
2020-Jan-25 15:10 073 4 gusting 14 6.7
2020-Jan-25 15:01 079 5 gusting 13 6.7
2020-Jan-25 14:52 082 5 gusting 13 6.1
2020-Jan-25 14:43 081 6 gusting 13 6.1
2020-Jan-25 14:34 087 6 gusting 13 6.1
2020-Jan-25 14:25 081 6 gusting 14 6.1
2020-Jan-25 14:16 085 6 gusting 14 6.1
2020-Jan-25 14:07 076 5 gusting 15 6.1
2020-Jan-25 13:58 068 5 gusting 13 6.1
2020-Jan-25 13:49 077 6 gusting 13 6.1
2020-Jan-25 13:40 077 5 gusting 14 6.1
2020-Jan-25 13:31 083 4 gusting 12 6.1
2020-Jan-25 13:22 083 4 gusting 13 6.1
2020-Jan-25 13:13 075 5 gusting 16 6.1
2020-Jan-25 13:04 074 4 gusting 16 6.1